User: anonymous   Login
Location: Unspecified
(0.0000°N, 0.0000°E)
Time: 14:49:40
(UTC+00:00)
Language:

FO-29 - Orbit

View from above orbital plane
View from above orbital plane
View from above satellite
View from above satellite

Ground track
Ground track

The orbit data is extracted from the following two-line orbital elements,

1 24278U 96046B   18202.76201415 -.00000031  00000-0  36172-5 0  9996
2 24278  98.5163  36.7494 0350788  21.3862 340.1533 13.53084365 82910
Epoch (UTC): 21 July 2018 18:17:18
Eccentricity: 0.0350788
inclination: 98.5163°
perigee height: 800 km
apogee height: 1322 km
right ascension of ascending node: 36.7494°
argument of perigee: 21.3862°
revolutions per day: 13.53084365
mean anomaly at epoch: 340.1533°
orbit number at epoch: 8291

The dashed part of the orbit path shows where the satellite is in the earth's shadow,  

DLR